TimeWEST,TemperatureF,Dew PointF,Humidity,Sea Level PressureIn,VisibilityMPH,Wind Direction,Wind SpeedMPH,Gust SpeedMPH,PrecipitationIn,Events,Conditions,WindDirDegrees,DateUTC
12:00 AM,71.6,57.2,60,29.92,6.2,NNE,12.7,-,N/A,,Scattered Clouds,20,2013-06-16 23:00:00
1:00 AM,72,57,49,29.86,6,NW,4.6,,,,Scattered Clouds,320,2013-06-17 00:00:00
1:00 AM,71.6,57.2,60,29.92,6.2,NW,4.6,-,N/A,,Scattered Clouds,320,2013-06-17 00:00:00
3:00 AM,66.2,57.2,73,29.89,6.2,Variable,1.2,-,N/A,,Scattered Clouds,0,2013-06-17 02:00:00
4:00 AM,65,55,62,29.85,6,WSW,4.6,,,,Scattered Clouds,240,2013-06-17 03:00:00
4:00 AM,66.2,55.4,68,29.89,6.2,WSW,4.6,-,N/A,,Scattered Clouds,240,2013-06-17 03:00:00
5:00 AM,64.4,55.4,73,29.89,-9999.0,Calm,Calm,-,N/A,,Clear,0,2013-06-17 04:00:00
6:00 AM,64.4,55.4,73,29.92,-9999.0,South,3.5,-,N/A,,Clear,190,2013-06-17 05:00:00
9:00 AM,80.6,59.0,48,29.95,-9999.0,Variable,2.3,-,N/A,,Clear,0,2013-06-17 08:00:00
10:00 AM,84,57,29,29.84,6,NNW,4.6,,,,Scattered Clouds,340,2013-06-17 09:00:00
10:00 AM,84.2,57.2,40,29.92,-9999.0,NNW,4.6,-,N/A,,Clear,340,2013-06-17 09:00:00
11:00 AM,87.8,55.4,33,29.92,-9999.0,North,12.7,-,N/A,,Clear,360,2013-06-17 10:00:00
1:00 PM,86,56,25,29.82,6,North,17.3,,,,Scattered Clouds,0,2013-06-17 12:00:00
1:00 PM,86.0,55.4,35,29.92,-9999.0,North,17.3,-,N/A,,Clear,360,2013-06-17 12:00:00
3:00 PM,80.6,60.8,51,29.89,6.2,North,21.9,-,N/A,,Partly Cloudy,350,2013-06-17 14:00:00
4:00 PM,79,59,41,29.81,7,North,23.0,,,,Scattered Clouds,350,2013-06-17 15:00:00
4:00 PM,78.8,59.0,51,29.89,6.2,North,23.0,-,N/A,,Partly Cloudy,350,2013-06-17 15:00:00
5:00 PM,77.0,57.2,50,29.89,6.2,North,21.9,-,N/A,,Partly Cloudy,360,2013-06-17 16:00:00
6:00 PM,77.0,53.6,44,29.89,6.2,North,23.0,-,N/A,,Partly Cloudy,350,2013-06-17 17:00:00
9:00 PM,68.0,59.0,73,29.95,6.2,North,10.4,-,N/A,,Scattered Clouds,10,2013-06-17 20:00:00
9:46 PM,67,59,67,29.91,6,NNE,6.9,,,,Scattered Clouds,20,2013-06-17 20:46:00
10:00 PM,68.0,59.0,73,29.95,6.2,NNE,6.9,-,N/A,,Scattered Clouds,20,2013-06-17 21:00:00
11:00 PM,66.2,59.0,78,29.98,6.2,North,10.4,-,N/A,,Scattered Clouds,360,2013-06-17 22:00:00